Location: Unspecified
(0.0000°N, 0.0000°E)
Time: 01:34:46
(UTC+00:00)

Vanguard 3 - Pass Details

Date: 11 December 2017
Orbit: 508 x 3264 km, 33.3° (Epoch: 23 June)

Event Time Altitude Azimuth Distance (km) Brightness Sun altitude
Exits shadow 01:22:21 11° 237° (WSW) 5,674 11.3 -58.4°
Maximum altitude 01:34:17 22° 195° (SSW) 5,225 11.3 -56.3°
Drops below altitude 10° 01:47:49 10° 152° (SSE) 6,042 11.9 -53.9°
Sets 01:54:17 0° 137° (SE) 6,779 12.4 -52.6°
